Location: Gugi
(45.4667°N, 11.1000°E)
Time: 21:44:22
(UTC+00:00)

Cosmos 1624 Rocket - Pass Details

Date: 17 November 2019
Orbit: 756 x 785 km, 74.0° (Epoch: 07 December)

Event Time Altitude Azimuth Distance (km) Brightness Sun altitude
Rises 18:00:08 0° 337° (NNW) 3,285 7.5 -23.8°
Reaches altitude 10° 18:02:33 10° 335° (NNW) 2,353 6.8 -24.2°
Maximum altitude 18:07:53 74° 252° (WSW) 820 4.2 -25.1°
Enters shadow 18:11:43 19° 170° (S) 1,788 5.8 -25.8°
